This is the latest recevied weather packets stored in our database for station/object VK4AB-13. If no packets are shown the sender has not sent any weather packets the latest 1 day(s).
| Time | Temp. | Humidity | Pressure | Rain* | Wind** | Luminosity | Snow |
|---|---|---|---|---|---|---|---|
| 1778107724 | 21.11° C | 88% | 1016.6 hPa | 0 mm | - | 339 W/m² | - |
| 1778107424 | 21.11° C | 88% | 1016.5 hPa | 0 mm | - | 396 W/m² | - |
| 1778107124 | 20.56° C | 90% | 1016.5 hPa | 0 mm | - | 169 W/m² | - |
| 1778106824 | 20.56° C | 91% | 1016.4 hPa | 0 mm | - | 369 W/m² | - |
| 1778106524 | 20° C | 92% | 1016.5 hPa | 0 mm | - | 234 W/m² | - |
| 1778106224 | 20° C | 93% | 1016.3 hPa | 0 mm | - | 309 W/m² | - |
| 1778105924 | 20° C | 94% | 1016.3 hPa | 0 mm | - | 290 W/m² | - |
| 1778105624 | 19.44° C | 94% | 1016.3 hPa | 0 mm | - | 278 W/m² | - |
| 1778105324 | 19.44° C | 94% | 1016.3 hPa | 0 mm | - | 153 W/m² | - |
| 1778105024 | 19.44° C | 95% | 1016.2 hPa | 0 mm | - | 67 W/m² | - |
| 1778104724 | 19.44° C | 96% | 1016.3 hPa | 0 mm | - | 142 W/m² | - |
| 1778104424 | 18.89° C | 96% | 1016.2 hPa | 0 mm | - | 241 W/m² | - |
| 1778104124 | 18.89° C | 96% | 1016.3 hPa | 0 mm | - | 229 W/m² | - |
| 1778103824 | 18.89° C | 96% | 1016.3 hPa | 0 mm | - | 209 W/m² | - |
| 1778103524 | 18.33° C | 96% | 1016.3 hPa | 0 mm | - | 62 W/m² | - |
| 1778102624 | 18.33° C | 95% | 1016.2 hPa | 0 mm | - | 42 W/m² | - |
| 1778102324 | 18.33° C | 95% | 1016.2 hPa | 0 mm | - | 14 W/m² | - |
| 1778101724 | 18.33° C | 96% | 1016.1 hPa | 0 mm | - | 14 W/m² | - |
| 1778101124 | 18.33° C | 96% | 1016.1 hPa | 0 mm | - | 28 W/m² | - |
| 1778100524 | 17.78° C | 96% | 1016 hPa | 0 mm | - | 14 W/m² | - |
| 1778100224 | 17.78° C | 95% | 1016 hPa | 0 mm | - | 5 W/m² | - |
| 1778099924 | 17.78° C | 96% | 1015.8 hPa | 0 mm | - | 0 W/m² | - |
| 1778099624 | 17.78° C | 95% | 1015.8 hPa | 0 mm | - | 7 W/m² | - |
| 1778099324 | 17.78° C | 95% | 1015.7 hPa | 0 mm | - | 0 W/m² | - |
| 1778098724 | 17.22° C | 95% | 1015.9 hPa | 0 mm | - | 0 W/m² | - |
* Rain latest hour (hover to see other rain measurements)
** Current wind speed in m/s (hover to see current wind gust speed)